,,Stat1,,Stat2,,Stat3,,Stat4,,Wind1,,Wind1,
time,status,PR1M_SUM,status,RH1M_AVG,status,SR1M_AVG,status,TA1M_AVG,status,W1dAve1m,status,W1sAve1m,
1999-09-01, 00:01:00,VALID,0,VALID,96.5974,VALID,-0.0679233,VALID,18.3643,VALID,188,VALID,0.506373,
1999-09-01, 00:02:00,VALID,0,VALID,96.8009,VALID,-0.0509425,VALID,18.3382,VALID,165,VALID,0.4125,
1999-09-01, 00:03:00,VALID,0,VALID,96.9395,VALID,-0.0509425,VALID,18.2934,VALID,148,VALID,0.302154,
1999-09-01, 00:04:00,VALID,0,VALID,97.0247,VALID,-0.0509425,VALID,18.2442,VALID,177,VALID,0.449119,
1999-09-01, 00:05:00,VALID,0,VALID,97.0717,VALID,-0.0679233,VALID,18.235,VALID,167,VALID,0.437078,
1999-09-01, 00:06:01,VALID,0,VALID,97.0005,VALID,-0.0849042,VALID,18.2092,VALID,170,VALID,0.79153,
1999-09-01, 00:07:00,VALID,0,VALID,96.8289,VALID,-0.0849042,VALID,18.2292,VALID,180,VALID,1.3127,
1999-09-01, 00:08:01,VALID,0,VALID,96.6305,VALID,-0.0679233,VALID,18.2387,VALID,190,VALID,1.10051,
1999-09-01, 00:09:00,VALID,0,VALID,96.7984,VALID,-0.0679233,VALID,18.2484,VALID,224,VALID,0.5,
1999-09-01, 00:10:00,VALID,0,VALID,96.4754,VALID,-0.0849042,VALID,18.2422,VALID,220,VALID,1.24219,
1999-09-01, 00:11:00,VALID,0,VALID,95.9082,VALID,-0.0509425,VALID,18.2514,VALID,211,VALID,1.39063,
1999-09-01, 00:12:00,VALID,0,VALID,95.3297,VALID,-0.0849042,VALID,18.3031,VALID,204,VALID,1.95456,
1999-09-01, 00:13:00,VALID,0,VALID,95.0715,VALID,-0.0849042,VALID,18.3648,VALID,217,VALID,1.57402,
1999-09-01, 00:14:00,VALID,0,VALID,94.9583,VALID,-0.0679233,VALID,18.4005,VALID,210,VALID,1.29811,
1999-09-01, 00:15:00,VALID,0,VALID,94.0568,VALID,-0.0849042,VALID,18.4167,VALID,217,VALID,2.16816,
1999-09-01, 00:16:00,VALID,0,VALID,94.0161,VALID,-0.0679233,VALID,18.4906,VALID,220,VALID,1.31456,
1999-09-01, 00:17:01,VALID,0,VALID,94.1674,VALID,-0.0339617,VALID,18.5261,VALID,170,VALID,0.855078,
1999-09-01, 00:18:00,VALID,0,VALID,93.9678,VALID,-0.0169808,VALID,18.5132,VALID,191,VALID,1.18503,
1999-09-01, 00:19:00,VALID,0,VALID,93.9182,VALID,-0.0849042,VALID,18.5164,VALID,186,VALID,1.04941,
1999-09-01, 00:20:00,VALID,0,VALID,94.4052,VALID,-0.0679233,VALID,18.4933,VALID,165,VALID,0.592105,
1999-09-01, 00:21:00,VALID,0,VALID,94.7053,VALID,-0.0679233,VALID,18.4553,VALID,205,VALID,0.279102,
1999-09-01, 00:22:00,VALID,0,VALID,94.9329,VALID,-0.0679233,VALID,18.41,VALID,219,VALID,0.473067,
1999-09-01, 00:23:00,VALID,0,VALID,95.308,VALID,-0.0509425,VALID,18.3613,VALID,231,VALID,0.364844,
1999-09-01, 00:24:00,VALID,0,VALID,95.5573,VALID,-0.0339617,VALID,18.3163,VALID,222,VALID,0.859375,
1999-09-01, 00:25:00,VALID,0,VALID,95.5547,VALID,-0.0679233,VALID,18.2447,VALID,210,VALID,0.683789,
1999-09-01, 00:26:00,VALID,0,VALID,95.1872,VALID,-0.0509425,VALID,18.2094,VALID,193,VALID,0.913857,
1999-09-01, 00:27:00,VALID,0,VALID,95.1478,VALID,-0.0339617,VALID,18.2156,VALID,186,VALID,0.662305,
1999-09-01, 00:28:01,VALID,0,VALID,94.5413,VALID,-0.0679233,VALID,18.2389,VALID,181,VALID,0.995271,
1999-09-01, 00:29:01,VALID,0,VALID,94.2539,VALID,0.0339617,VALID,18.286,VALID,183,VALID,0.930859,
1999-09-01, 00:30:00,VALID,0,VALID,94.0784,VALID,0.0509425,VALID,18.3537,VALID,177,VALID,0.794408,
1999-09-01, 00:31:00,VALID,0,VALID,93.9919,VALID,0.0679233,VALID,18.3828,VALID,192,VALID,0.87207,
1999-09-01, 00:32:00,VALID,0,VALID,93.5634,VALID,0.0509425,VALID,18.3955,VALID,162,VALID,1.25432,
1999-09-01, 00:33:00,VALID,0,VALID,93.2277,VALID,0.0339617,VALID,18.4599,VALID,162,VALID,1.19258,
1999-09-01, 00:34:00,VALID,0,VALID,93.1336,VALID,0.0509425,VALID,18.5185,VALID,168,VALID,1.06394,
1999-09-01, 00:35:00,VALID,0,VALID,93.0916,VALID,0.0509425,VALID,18.5347,VALID,159,VALID,1.11738,
1999-09-01, 00:36:00,VALID,0,VALID,93.2887,VALID,0.0339617,VALID,18.5437,VALID,172,VALID,0.79523,
1999-09-01, 00:37:00,VALID,0,VALID,93.0395,VALID,0.0509425,VALID,18.5444,VALID,164,VALID,1.19297,
1999-09-01, 00:38:00,VALID,0,VALID,93.3396,VALID,0.0509425,VALID,18.5511,VALID,178,VALID,0.780222,
1999-09-01, 00:39:01,VALID,0,VALID,93.7541,VALID,0.0509425,VALID,18.5187,VALID,204,VALID,0.670508,
1999-09-01, 00:40:01,VALID,0,VALID,93.7618,VALID,0.0509425,VALID,18.4536,VALID,186,VALID,0.907484,
1999-09-01, 00:41:00,VALID,0,VALID,93.8012,VALID,0.0849042,VALID,18.431,VALID,196,VALID,0.852539,
1999-09-01, 00:42:00,VALID,0,VALID,94.3785,VALID,0.0679233,VALID,18.4114,VALID,150,VALID,0.470806,
1999-09-01, 00:43:00,VALID,0,VALID,94.7066,VALID,0.0679233,VALID,18.389,VALID,170,VALID,0.25625,
1999-09-01, 00:44:00,VALID,0,VALID,94.9393,VALID,0.0339617,VALID,18.3308,VALID,217,VALID,0.116365,
1999-09-01, 00:45:00,VALID,0,VALID,95.1758,VALID,0,VALID,18.2962,VALID,212,VALID,0.235938,
1999-09-01, 00:46:00,VALID,0,VALID,95.1046,VALID,-0.0169808,VALID,18.2449,VALID,202,VALID,0.594572,
1999-09-01, 00:47:00,VALID,0,VALID,95.2673,VALID,-0.0169808,VALID,18.193,VALID,198,VALID,0.693945,
1999-09-01, 00:48:00,VALID,0,VALID,95.4441,VALID,0,VALID,18.1542,VALID,185,VALID,0.652961,
1999-09-01, 00:49:00,VALID,0,VALID,95.6552,VALID,0,VALID,18.1053,VALID,170,VALID,0.729883,
1999-09-01, 00:50:00,VALID,0,VALID,95.4873,VALID,0,VALID,18.096,VALID,179,VALID,1.24589,
1999-09-01, 00:51:01,VALID,0,VALID,95.4466,VALID,0,VALID,18.1055,VALID,181,VALID,1.01445,
1999-09-01, 00:52:00,VALID,0,VALID,95.4594,VALID,0,VALID,18.105,VALID,199,VALID,0.789268,
1999-09-01, 00:53:00,VALID,0,VALID,95.1198,VALID,0,VALID,18.1378,VALID,202,VALID,1.32266,
1999-09-01, 00:54:00,VALID,0,VALID,94.9647,VALID,0,VALID,18.1766,VALID,191,VALID,1.31024,
1999-09-01, 00:55:00,VALID,0,VALID,94.7155,VALID,0,VALID,18.2221,VALID,206,VALID,1.33945,
1999-09-01, 00:56:00,VALID,0,VALID,94.4141,VALID,-0.0169808,VALID,18.2706,VALID,210,VALID,1.53454,
1999-09-01, 00:57:00,VALID,0,VALID,94.1432,VALID,0.0169808,VALID,18.3123,VALID,211,VALID,1.63242,
1999-09-01, 00:58:00,VALID,0,VALID,93.7757,VALID,0,VALID,18.3608,VALID,213,VALID,1.53331,
1999-09-01, 00:59:00,VALID,0,VALID,93.6715,VALID,0,VALID,18.4061,VALID,215,VALID,1.87441,
1999-09-01, 01:00:00,VALID,0,VALID,93.702,VALID,0,VALID,18.4058,VALID,197,VALID,1.23561,
1999-09-01, 01:01:01,VALID,0,VALID,93.2188,VALID,-0.0169808,VALID,18.4287,VALID,191,VALID,1.60059,
1999-09-01, 01:02:00,VALID,0,VALID,92.8297,VALID,-0.0169808,VALID,18.48,VALID,198,VALID,1.69243,
1999-09-01, 01:03:00,VALID,0,VALID,92.3198,VALID,-0.0339617,VALID,18.5485,VALID,202,VALID,1.73828,
1999-09-01, 01:04:00,VALID,0,VALID,92.4355,VALID,0,VALID,18.597,VALID,193,VALID,0.989515,
1999-09-01, 01:05:00,VALID,0,VALID,92.3096,VALID,0,VALID,18.6099,VALID,175,VALID,1.3791,
1999-09-01, 01:06:00,VALID,0,VALID,91.9396,VALID,0,VALID,18.6159,VALID,207,VALID,1.8419,
1999-09-01, 01:07:00,VALID,0,VALID,91.6191,VALID,0.0169808,VALID,18.6739,VALID,191,VALID,1.62129,
1999-09-01, 01:08:00,VALID,0,VALID,91.6611,VALID,0.0339617,VALID,18.7097,VALID,200,VALID,1.79975,
1999-09-01, 01:09:00,VALID,0,VALID,91.7526,VALID,0,VALID,18.733,VALID,212,VALID,1.73164,
1999-09-01, 01:10:00,VALID,0,VALID,91.9586,VALID,0,VALID,18.7027,VALID,224,VALID,1.27159,
1999-09-01, 01:11:00,VALID,0,VALID,92.1036,VALID,0,VALID,18.6838,VALID,196,VALID,1.42832,
1999-09-01, 01:12:01,VALID,0,VALID,92.2981,VALID,0,VALID,18.6517,VALID,188,VALID,1.61184,
1999-09-01, 01:13:01,VALID,0,VALID,92.6618,VALID,0,VALID,18.6224,VALID,200,VALID,1.21699,
1999-09-01, 01:14:00,VALID,0,VALID,92.8259,VALID,0.0169808,VALID,18.5709,VALID,202,VALID,1.62294,
1999-09-01, 01:15:00,VALID,0,VALID,92.9301,VALID,0,VALID,18.5127,VALID,214,VALID,1.60879,
1999-09-01, 01:16:00,VALID,0,VALID,92.8755,VALID,0,VALID,18.4802,VALID,210,VALID,1.83635,
1999-09-01, 01:17:00,VALID,0,VALID,93.1628,VALID,0.0339617,VALID,18.4543,VALID,197,VALID,1.78613,
1999-09-01, 01:18:00,VALID,0,VALID,93.2518,VALID,0,VALID,18.428,VALID,199,VALID,1.57155,
1999-09-01, 01:19:00,VALID,0,VALID,93.2073,VALID,-0.0339617,VALID,18.4414,VALID,217,VALID,2.00645,
1999-09-01, 01:20:00,VALID,0,VALID,93.0993,VALID,0,VALID,18.4638,VALID,215,VALID,2.01768,
1999-09-01, 01:21:00,VALID,0,VALID,93.1488,VALID,0,VALID,18.4936,VALID,213,VALID,1.77988,
1999-09-01, 01:22:00,VALID,0,VALID,93.0611,VALID,0,VALID,18.4864,VALID,217,VALID,2.07052,
1999-09-01, 01:23:01,VALID,0,VALID,92.8538,VALID,0.0169808,VALID,18.5155,VALID,216,VALID,2.85996,
1999-09-01, 01:24:01,VALID,0,VALID,92.8208,VALID,0.0169808,VALID,18.5381,VALID,232,VALID,2.16345,
1999-09-01, 01:25:00,VALID,0,VALID,92.5741,VALID,0,VALID,18.5481,VALID,224,VALID,2.44277,
1999-09-01, 01:26:00,VALID,0,VALID,92.5372,VALID,0,VALID,18.561,VALID,217,VALID,2.20683,
1999-09-01, 01:27:00,VALID,0,VALID,92.438,VALID,0.0169808,VALID,18.5645,VALID,217,VALID,2.21035,
1999-09-01, 01:28:00,VALID,0,VALID,92.3503,VALID,0,VALID,18.5483,VALID,221,VALID,1.897,
1999-09-01, 01:29:00,VALID,0,VALID,92.1201,VALID,0,VALID,18.5543,VALID,227,VALID,1.7752,
1999-09-01, 01:30:00,VALID,0,VALID,91.7781,VALID,0,VALID,18.5839,VALID,214,VALID,2.03166,
1999-09-01, 01:31:00,VALID,0,VALID,91.6051,VALID,0,VALID,18.6092,VALID,214,VALID,1.67656,
1999-09-01, 01:32:00,VALID,0,VALID,91.6814,VALID,0.0169808,VALID,18.6383,VALID,213,VALID,1.82545,
1999-09-01, 01:33:00,VALID,0,VALID,91.6509,VALID,0,VALID,18.6125,VALID,194,VALID,1.64688,
1999-09-01, 01:34:00,VALID,0,VALID,91.6941,VALID,0,VALID,18.5988,VALID,215,VALID,1.75863,
1999-09-01, 01:35:01,VALID,0,VALID,91.6725,VALID,0,VALID,18.6129,VALID,220,VALID,2.21367,
1999-09-01, 01:36:00,VALID,0,VALID,91.8683,VALID,0,VALID,18.6129,VALID,225,VALID,1.49075,
1999-09-01, 01:37:00,VALID,0,VALID,91.8569,VALID,0,VALID,18.6039,VALID,215,VALID,1.82949,
1999-09-01, 01:38:00,VALID,0,VALID,92.0171,VALID,0.0169808,VALID,18.5746,VALID,227,VALID,1.73499,
1999-09-01, 01:39:00,VALID,0,VALID,92.171,VALID,0,VALID,18.5289,VALID,224,VALID,1.84512,
1999-09-01, 01:40:00,VALID,0,VALID,92.0209,VALID,0,VALID,18.516,VALID,221,VALID,2.08676,
1999-09-01, 01:41:00,VALID,0,VALID,91.8683,VALID,0,VALID,18.5347,VALID,214,VALID,2.20313,
1999-09-01, 01:42:00,VALID,0,VALID,92.0985,VALID,0,VALID,18.5384,VALID,229,VALID,1.73335,
1999-09-01, 01:43:00,VALID,0,VALID,92.4456,VALID,-0.0169808,VALID,18.513,VALID,227,VALID,1.59277,
1999-09-01, 01:44:00,VALID,0,VALID,92.6898,VALID,0,VALID,18.4737,VALID,230,VALID,1.59025,
1999-09-01, 01:45:01,VALID,0,VALID,92.6478,VALID,0,VALID,18.4285,VALID,223,VALID,1.60898,
1999-09-01, 01:46:00,VALID,0,VALID,92.3554,VALID,0,VALID,18.4285,VALID,229,VALID,1.50822,
1999-09-01, 01:47:00,VALID,0,VALID,92.0667,VALID,0,VALID,18.464,VALID,217,VALID,1.81758,
1999-09-01, 01:48:00,VALID,0,VALID,91.9574,VALID,0,VALID,18.5187,VALID,220,VALID,1.45456,
1999-09-01, 01:49:00,VALID,0,VALID,92.0438,VALID,0,VALID,18.5448,VALID,214,VALID,1.0502,
1999-09-01, 01:50:00,VALID,0,VALID,91.792,VALID,0.0509425,VALID,18.561,VALID,226,VALID,1.14494,
1999-09-01, 01:51:00,VALID,0,VALID,91.7539,VALID,0,VALID,18.5804,VALID,227,VALID,1.24512,
1999-09-01, 01:52:00,VALID,0,VALID,91.4983,VALID,0,VALID,18.5772,VALID,214,VALID,1.57566,
1999-09-01, 01:53:00,VALID,0,VALID,91.4602,VALID,0,VALID,18.5898,VALID,216,VALID,1.40801,
1999-09-01, 01:54:00,VALID,0,VALID,91.3241,VALID,0.0339617,VALID,18.6058,VALID,223,VALID,1.30633,
1999-09-01, 01:55:00,VALID,0,VALID,91.1995,VALID,0,VALID,18.6222,VALID,202,VALID,1.3543,
1999-09-01, 01:56:01,VALID,0,VALID,91.23,VALID,0,VALID,18.6679,VALID,225,VALID,0.921464,
1999-09-01, 01:57:01,VALID,0,VALID,91.1334,VALID,0,VALID,18.6774,VALID,221,VALID,1.48848,
1999-09-01, 01:58:00,VALID,0,VALID,91.0977,VALID,0.0339617,VALID,18.6871,VALID,203,VALID,1.38117,
1999-09-01, 01:59:00,VALID,0,VALID,90.9922,VALID,0,VALID,18.6871,VALID,225,VALID,1.66309,
1999-09-01, 02:00:00,VALID,0,VALID,90.9553,VALID,0,VALID,18.6868,VALID,219,VALID,1.92475,
1999-09-01, 02:01:00,VALID,0,VALID,91.024,VALID,0.0169808,VALID,18.6997,VALID,221,VALID,2.02246,
1999-09-01, 02:02:00,VALID,0,VALID,91.1334,VALID,0,VALID,18.6838,VALID,216,VALID,1.4854,
1999-09-01, 02:03:00,VALID,0,VALID,90.9019,VALID,0,VALID,18.69,VALID,216,VALID,2.14902,
1999-09-01, 02:04:00,VALID,0,VALID,90.8854,VALID,0.0169808,VALID,18.703,VALID,216,VALID,2.15892,
1999-09-01, 02:05:00,VALID,0,VALID,90.8091,VALID,0.0339617,VALID,18.7032,VALID,216,VALID,2.07031,
1999-09-01, 02:06:00,VALID,0,VALID,90.5421,VALID,0.0339617,VALID,18.706,VALID,219,VALID,2.70456,
1999-09-01, 02:07:01,VALID,0,VALID,90.5662,VALID,0.0169808,VALID,18.7418,VALID,223,VALID,2.00957,
1999-09-01, 02:08:01,VALID,0,VALID,90.6209,VALID,0.0339617,VALID,18.7478,VALID,211,VALID,1.98006,
1999-09-01, 02:09:00,VALID,0,VALID,90.551,VALID,0.0169808,VALID,18.7448,VALID,237,VALID,2.2793,
1999-09-01, 02:10:00,VALID,0,VALID,90.701,VALID,0.0169808,VALID,18.7348,VALID,233,VALID,2.21834,
1999-09-01, 02:11:00,VALID,0,VALID,90.9337,VALID,0.0169808,VALID,18.7124,VALID,237,VALID,2.175,
1999-09-01, 02:12:00,VALID,0,VALID,90.9744,VALID,0.0169808,VALID,18.6799,VALID,226,VALID,2.35218,
1999-09-01, 02:13:00,VALID,0,VALID,91.2872,VALID,0.0169808,VALID,18.6771,VALID,227,VALID,1.89238,
1999-09-01, 02:14:00,VALID,0,VALID,91.6242,VALID,0,VALID,18.6256,VALID,227,VALID,2.04667,
1999-09-01, 02:15:00,VALID,0,VALID,91.4042,VALID,0,VALID,18.5928,VALID,217,VALID,2.33398,
1999-09-01, 02:16:00,VALID,0,VALID,91.0418,VALID,0.0339617,VALID,18.6122,VALID,216,VALID,2.13199,
1999-09-01, 02:17:00,VALID,0,VALID,90.9337,VALID,0.0339617,VALID,18.6349,VALID,218,VALID,1.8584,
1999-09-01, 02:18:00,VALID,0,VALID,90.776,VALID,0.0169808,VALID,18.6711,VALID,219,VALID,2.06908,
1999-09-01, 02:19:01,VALID,0,VALID,90.5535,VALID,0,VALID,18.6766,VALID,216,VALID,2.26152,
1999-09-01, 02:20:00,VALID,0,VALID,90.2814,VALID,0.0169808,VALID,18.7094,VALID,215,VALID,2.19223,
1999-09-01, 02:21:00,VALID,0,VALID,90.2788,VALID,0.0339617,VALID,18.7577,VALID,217,VALID,1.66406,
1999-09-01, 02:22:00,VALID,0,VALID,90.3411,VALID,0.0169808,VALID,18.7704,VALID,221,VALID,1.70456,
1999-09-01, 02:23:00,VALID,0,VALID,90.5243,VALID,0,VALID,18.7545,VALID,224,VALID,1.81191,
1999-09-01, 02:24:00,VALID,0,VALID,90.7951,VALID,0.0169808,VALID,18.7254,VALID,220,VALID,1.64145,
1999-09-01, 02:25:00,VALID,0,VALID,90.7875,VALID,0.0169808,VALID,18.69,VALID,218,VALID,2.01016,
1999-09-01, 02:26:00,VALID,0,VALID,91.0151,VALID,0.0169808,VALID,18.6737,VALID,217,VALID,1.84601,
1999-09-01, 02:27:00,VALID,0,VALID,91.0952,VALID,0,VALID,18.6513,VALID,215,VALID,1.83242,
1999-09-01, 02:28:01,VALID,0,VALID,91.1601,VALID,0,VALID,18.6448,VALID,216,VALID,1.7868,
1999-09-01, 02:29:01,VALID,0,VALID,91.1537,VALID,0.0169808,VALID,18.6381,VALID,222,VALID,2.45898,
1999-09-01, 02:30:01,VALID,0,VALID,90.8078,VALID,0.0169808,VALID,18.6704,VALID,221,VALID,2.1028,
1999-09-01, 02:31:00,VALID,0,VALID,90.4556,VALID,0.0169808,VALID,18.7381,VALID,219,VALID,2.19355,
1999-09-01, 02:32:00,VALID,0,VALID,90.3284,VALID,0,VALID,18.7928,VALID,225,VALID,1.86225,
1999-09-01, 02:33:00,VALID,0,VALID,89.624,VALID,0,VALID,18.8614,VALID,215,VALID,2.34668,
1999-09-01, 02:34:00,VALID,0,VALID,89.4523,VALID,0,VALID,18.9648,VALID,213,VALID,1.80181,
1999-09-01, 02:35:00,VALID,0,VALID,89.5121,VALID,0,VALID,18.9937,VALID,219,VALID,1.73457,
1999-09-01, 02:36:00,VALID,0,VALID,89.6812,VALID,0,VALID,18.968,VALID,227,VALID,1.62336,
1999-09-01, 02:37:00,VALID,0,VALID,89.8058,VALID,0,VALID,18.9519,VALID,207,VALID,1.22148,
1999-09-01, 02:38:00,VALID,0,VALID,89.6392,VALID,0.0169808,VALID,18.9419,VALID,215,VALID,1.78886,
1999-09-01, 02:39:00,VALID,0,VALID,89.3862,VALID,0,VALID,18.9867,VALID,205,VALID,1.38457,
1999-09-01, 02:40:01,VALID,0,VALID,89.2081,VALID,0.0169808,VALID,19.0389,VALID,209,VALID,1.57051,
1999-09-01, 02:41:01,VALID,0,VALID,88.9195,VALID,0.0509425,VALID,19.0715,VALID,213,VALID,1.53066,
1999-09-01, 02:42:00,VALID,0,VALID,88.9081,VALID,0,VALID,19.1103,VALID,213,VALID,1.52673,
1999-09-01, 02:43:00,VALID,0,VALID,88.8368,VALID,0.0169808,VALID,19.1521,VALID,217,VALID,1.40781,
1999-09-01, 02:44:00,VALID,0,VALID,88.9004,VALID,0.0169808,VALID,19.1523,VALID,223,VALID,1.31168,
1999-09-01, 02:45:00,VALID,0,VALID,88.8394,VALID,0,VALID,19.1167,VALID,221,VALID,1.4416,
1999-09-01, 02:46:00,VALID,0,VALID,88.9932,VALID,0.0169808,VALID,19.11,VALID,206,VALID,1.24095,
1999-09-01, 02:47:00,VALID,0,VALID,88.9233,VALID,0.0169808,VALID,19.1036,VALID,206,VALID,1.17246,
1999-09-01, 02:48:00,VALID,0,VALID,89.1293,VALID,0,VALID,19.1001,VALID,211,VALID,1.15892,
1999-09-01, 02:49:00,VALID,0,VALID,88.9233,VALID,0.0169808,VALID,19.0969,VALID,213,VALID,1.49648,
1999-09-01, 02:50:00,VALID,0,VALID,89.0645,VALID,0.0339617,VALID,19.1163,VALID,215,VALID,0.953947,
1999-09-01, 02:51:01,VALID,0,VALID,89.3709,VALID,0.0339617,VALID,19.0999,VALID,207,VALID,0.842188,
1999-09-01, 02:52:01,VALID,0,VALID,88.9818,VALID,0.0169808,VALID,19.0705,VALID,205,VALID,1.38199,
1999-09-01, 02:53:00,VALID,0,VALID,89.0912,VALID,0,VALID,19.11,VALID,186,VALID,1.21758,
1999-09-01, 02:54:00,VALID,0,VALID,89.5667,VALID,0.0339617,VALID,19.1031,VALID,159,VALID,0.961965,
1999-09-01, 02:55:00,VALID,0,VALID,89.9622,VALID,0.0169808,VALID,19.0516,VALID,176,VALID,0.765234,
1999-09-01, 02:56:00,VALID,0,VALID,89.9851,VALID,0.0339617,VALID,18.99,VALID,190,VALID,1.18524,
1999-09-01, 02:57:00,VALID,0,VALID,89.8808,VALID,0,VALID,18.9676,VALID,207,VALID,1.25625,
1999-09-01, 02:58:00,VALID,0,VALID,89.8808,VALID,0.0169808,VALID,18.974,VALID,197,VALID,1.19367,
1999-09-01, 02:59:00,VALID,0,VALID,90.0449,VALID,-0.0339617,VALID,18.9812,VALID,186,VALID,1.0875,
1999-09-01, 03:00:00,VALID,0,VALID,90.3208,VALID,-0.0849042,VALID,18.9524,VALID,187,VALID,0.994655,
1999-09-01, 03:01:01,VALID,0,VALID,90.2318,VALID,-0.0679233,VALID,18.9175,VALID,193,VALID,1.04922,
1999-09-01, 03:02:00,VALID,0,VALID,90.0767,VALID,-0.0849042,VALID,18.9304,VALID,193,VALID,1.27488,
1999-09-01, 03:03:01,VALID,0,VALID,89.9253,VALID,-0.101885,VALID,18.9623,VALID,194,VALID,1.19551,
1999-09-01, 03:04:00,VALID,0,VALID,89.8643,VALID,-0.0849042,VALID,19.011,VALID,196,VALID,1.39844,
1999-09-01, 03:05:00,VALID,0,VALID,89.9902,VALID,-0.0679233,VALID,19.0071,VALID,216,VALID,1.50371,
1999-09-01, 03:06:00,VALID,0,VALID,90.0779,VALID,-0.101885,VALID,18.9914,VALID,215,VALID,1.68771,
1999-09-01, 03:07:00,VALID,0,VALID,89.6125,VALID,-0.0679233,VALID,18.9916,VALID,214,VALID,2.19434,
1999-09-01, 03:08:00,VALID,0,VALID,89.3315,VALID,-0.0339617,VALID,19.0434,VALID,220,VALID,1.70847,
1999-09-01, 03:09:00,VALID,0,VALID,89.128,VALID,-0.0169808,VALID,19.0787,VALID,216,VALID,1.98652,
1999-09-01, 03:10:00,VALID,0,VALID,89.0784,VALID,-0.0509425,VALID,19.0655,VALID,215,VALID,1.74856,
1999-09-01, 03:11:00,VALID,0,VALID,89.4218,VALID,-0.0849042,VALID,19.0394,VALID,225,VALID,1.88379,
1999-09-01, 03:12:01,VALID,0,VALID,89.6825,VALID,-0.0849042,VALID,18.9916,VALID,224,VALID,1.98869,
1999-09-01, 03:13:01,VALID,0,VALID,89.9698,VALID,-0.0849042,VALID,18.9006,VALID,221,VALID,1.83613,
1999-09-01, 03:14:00,VALID,0,VALID,90.1123,VALID,0,VALID,18.8385,VALID,213,VALID,1.90008,
1999-09-01, 03:15:00,VALID,0,VALID,90.3933,VALID,0.0169808,VALID,18.8057,VALID,193,VALID,1.13418,
1999-09-01, 03:16:00,VALID,0,VALID,90.846,VALID,0.0509425,VALID,18.7768,VALID,198,VALID,0.554071,
1999-09-01, 03:17:00,VALID,0,VALID,91.0774,VALID,0.0849042,VALID,18.7344,VALID,224,VALID,1.50117,
1999-09-01, 03:18:00,VALID,0,VALID,91.0494,VALID,0.0339617,VALID,18.6868,VALID,219,VALID,1.69737,
1999-09-01, 03:19:00,VALID,0,VALID,90.9274,VALID,0.0509425,VALID,18.6635,VALID,219,VALID,1.68301,
1999-09-01, 03:20:00,VALID,0,VALID,90.5675,VALID,0,VALID,18.6804,VALID,216,VALID,1.49918,
1999-09-01, 03:21:00,VALID,0,VALID,90.6387,VALID,0.0169808,VALID,18.696,VALID,226,VALID,1.43184,
1999-09-01, 03:22:00,VALID,0,VALID,90.6616,VALID,0.0339617,VALID,18.6729,VALID,217,VALID,1.57833,
1999-09-01, 03:23:01,VALID,0,VALID,90.9121,VALID,0.0169808,VALID,18.6473,VALID,211,VALID,1.50723,
1999-09-01, 03:24:01,VALID,0,VALID,91.1766,VALID,0,VALID,18.6185,VALID,198,VALID,1.31867,
1999-09-01, 03:25:00,VALID,0,VALID,91.127,VALID,0.0339617,VALID,18.5891,VALID,187,VALID,1.23379,
1999-09-01, 03:26:00,VALID,0,VALID,91.0698,VALID,0.0849042,VALID,18.5956,VALID,200,VALID,1.24527,
1999-09-01, 03:27:00,VALID,0,VALID,91.1931,VALID,0.0169808,VALID,18.6185,VALID,209,VALID,1.07578,
1999-09-01, 03:28:00,VALID,0,VALID,91.1969,VALID,0.0169808,VALID,18.5889,VALID,207,VALID,1.04667,
1999-09-01, 03:29:00,VALID,0,VALID,90.9553,VALID,0,VALID,18.5991,VALID,213,VALID,1.40547,
1999-09-01, 03:30:00,VALID,0,VALID,90.804,VALID,0,VALID,18.6386,VALID,214,VALID,1.32422,
1999-09-01, 03:31:00,VALID,0,VALID,90.6387,VALID,0,VALID,18.648,VALID,214,VALID,1.36758,
1999-09-01, 03:32:00,VALID,0,VALID,90.8294,VALID,0,VALID,18.6547,VALID,218,VALID,1.37233,
1999-09-01, 03:33:00,VALID,0,VALID,91.1995,VALID,0.0169808,VALID,18.6282,VALID,221,VALID,0.995117,
1999-09-01, 03:34:00,VALID,0,VALID,91.3546,VALID,0.0169808,VALID,18.5797,VALID,223,VALID,1.36595,
1999-09-01, 03:35:01,VALID,0,VALID,91.4691,VALID,0,VALID,18.5314,VALID,215,VALID,1.10312,
1999-09-01, 03:36:00,VALID,0,VALID,91.7806,VALID,0.0169808,VALID,18.5023,VALID,210,VALID,1.2831,
1999-09-01, 03:37:00,VALID,0,VALID,91.8505,VALID,0.0339617,VALID,18.4603,VALID,205,VALID,1.20117,
1999-09-01, 03:38:00,VALID,0,VALID,92.0171,VALID,0,VALID,18.4375,VALID,203,VALID,0.917763,
1999-09-01, 03:39:00,VALID,0,VALID,92.3299,VALID,0,VALID,18.422,VALID,164,VALID,0.897656,
1999-09-01, 03:40:00,VALID,0,VALID,92.5499,VALID,0,VALID,18.3765,VALID,165,VALID,0.980058,
1999-09-01, 03:41:00,VALID,0,VALID,92.6529,VALID,0,VALID,18.3375,VALID,167,VALID,0.980664,
1999-09-01, 03:42:00,VALID,0,VALID,92.7877,VALID,0,VALID,18.328,VALID,189,VALID,0.657072,
1999-09-01, 03:43:00,VALID,0,VALID,92.803,VALID,-0.0169808,VALID,18.2987,VALID,186,VALID,1.01445,
1999-09-01, 03:44:00,VALID,0,VALID,92.6936,VALID,0.0509425,VALID,18.3022,VALID,196,VALID,1.07874,
1999-09-01, 03:45:01,VALID,0,VALID,92.8386,VALID,-0.0169808,VALID,18.3151,VALID,206,VALID,0.92207,
1999-09-01, 03:46:00,VALID,0,VALID,92.9696,VALID,-0.0169808,VALID,18.2828,VALID,208,VALID,1.16756,
1999-09-01, 03:47:00,VALID,0,VALID,93.1488,VALID,-0.0169808,VALID,18.2766,VALID,208,VALID,1.51914,
1999-09-01, 03:48:00,VALID,0,VALID,93.2836,VALID,-0.0169808,VALID,18.2472,VALID,213,VALID,1.64638,
1999-09-01, 03:49:00,VALID,0,VALID,93.3498,VALID,-0.0169808,VALID,18.2311,VALID,213,VALID,1.36914,
1999-09-01, 03:50:00,VALID,0,VALID,93.4515,VALID,-0.0339617,VALID,18.2251,VALID,197,VALID,1.42064,
1999-09-01, 03:51:00,VALID,0,VALID,93.6155,VALID,-0.0339617,VALID,18.2057,VALID,202,VALID,1.40449,
1999-09-01, 03:52:00,VALID,0,VALID,93.8037,VALID,-0.0339617,VALID,18.1699,VALID,210,VALID,1.34457,
1999-09-01, 03:53:00,VALID,0,VALID,93.8431,VALID,-0.0339617,VALID,18.1344,VALID,200,VALID,1.31504,
1999-09-01, 03:54:00,VALID,0,VALID,93.7897,VALID,-0.0339617,VALID,18.1242,VALID,203,VALID,1.39762,
1999-09-01, 03:55:00,VALID,0,VALID,93.6537,VALID,0,VALID,18.1505,VALID,197,VALID,1.41055,
1999-09-01, 03:56:01,VALID,0,VALID,93.6308,VALID,-0.0169808,VALID,18.1639,VALID,207,VALID,1.32833,
1999-09-01, 03:57:01,VALID,0,VALID,93.6397,VALID,0,VALID,18.1473,VALID,204,VALID,1.61523,
1999-09-01, 03:58:00,VALID,0,VALID,93.5341,VALID,-0.0339617,VALID,18.1706,VALID,204,VALID,1.41632,
1999-09-01, 03:59:00,VALID,0,VALID,93.3472,VALID,-0.0339617,VALID,18.2059,VALID,201,VALID,1.77285,
1999-09-01, 04:00:00,VALID,0,VALID,93.2557,VALID,-0.0509425,VALID,18.2186,VALID,203,VALID,1.31127,
1999-09-01, 04:01:00,VALID,0,VALID,93.2582,VALID,0,VALID,18.2249,VALID,199,VALID,1.16191,
1999-09-01, 04:02:00,VALID,0,VALID,93.4146,VALID,0,VALID,18.2191,VALID,190,VALID,1.0403,
1999-09-01, 04:03:00,VALID,0,VALID,93.5837,VALID,0,VALID,18.1734,VALID,184,VALID,1.15723,
1999-09-01, 04:04:00,VALID,0,VALID,93.8508,VALID,-0.0169808,VALID,18.1286,VALID,191,VALID,1.55757,
1999-09-01, 04:05:00,VALID,0,VALID,93.9309,VALID,-0.0169808,VALID,18.1189,VALID,173,VALID,1.58633,
1999-09-01, 04:06:00,VALID,0,VALID,93.9589,VALID,-0.0169808,VALID,18.1055,VALID,176,VALID,1.62932,
1999-09-01, 04:07:01,VALID,0,VALID,93.8686,VALID,-0.0339617,VALID,18.1025,VALID,185,VALID,1.80234,
1999-09-01, 04:08:01,VALID,0,VALID,93.8711,VALID,-0.0679233,VALID,18.0963,VALID,201,VALID,1.54502,